Weather History for Prestonsburg, KY

Change the Weather History Date:

Sunday, April 7, 2013

  Actual Average (KJKL) Record (KJKL)
Temperature  
Mean Temperature 64 °F 55 °F  
Max Temperature 73 °F 66 °F 85 °F (2010)
Min Temperature 55 °F 44 °F 20 °F (1982)
Degree Days  
Heating Degree Days 1 11  
Month to date heating degree days 84  
Since 1 July heating degree days 3937  
Cooling Degree Days 0 1  
Month to date cooling degree days 7  
Year to date cooling degree days 14  
Growing Degree Days 14 (Base 50)    
Moisture  
Dew Point 38 °F    
Average Humidity 37    
Maximum Humidity 44    
Minimum Humidity 30    
Precipitation  
Precipitation 0.00 in 0.12 in 1.19 in (2006)
Month to date precipitation 0.86  
Year to date precipitation 12.34  
Snow  
Snow 0.00 in 0.00 in - ()
Month to date snowfall 0.4  
Since 1 July snowfall 22.9  
Snow Depth -    
Sea Level Pressure  
Sea Level Pressure 30.03 in    
Wind  
Wind Speed 9 mph (SW)    
Max Wind Speed 21 mph    
Max Gust Speed 28 mph    
Visibility 10 miles    
Events      
T = Trace of Precipitation, MM = Missing Value Source: NWS Daily Summary

Daily Weather History Graph

Daily Weather History Graph

Search for Another Location

Airport:

Trip Planner

Search our weather history database for the weather conditions in past years. The results will help you decide how hot, cold, wet, or windy it might be!

Date:

Astronomy

Apr. 07, 2013 Rise Set
Actual Time 7:06 AM EDT 7:59 PM EDT
Civil Twilight 6:39 AM EDT 8:25 PM EDT
Nautical Twilight 6:08 AM EDT 8:57 PM EDT
Astronomical Twilight 5:35 AM EDT 9:30 PM EDT
Moon 5:20 AM EDT (4/7) 5:32 PM EDT (4/7)
Length of Visible Light 13h 45m
Length of Day
12h 52m
Waning Crescent, 8% of the Moon is Illuminated
Apr 7
Waning Crescent
Apr 10
New
Apr 18
First Quarter
Apr 25
Full
May 2
Last Quarter

Hourly Weather History & Observations

Time (EDT) Temp. Dew Point Humidity Pressure Visibility Wind Dir Wind Speed Gust Speed Precip Events Conditions
12:15 AM 62.6 °F 30.2 °F 30% 30.04 in 10.0 mi South 8.1 mph - N/A   Clear
12:35 AM 62.6 °F 30.9 °F 30% 30.04 in 10.0 mi South 9.2 mph - N/A   Clear
12:55 AM 61.7 °F 32.0 °F 33% 30.05 in 10.0 mi South 9.2 mph - N/A   Clear
1:15 AM 60.8 °F 33.1 °F 35% 30.05 in 10.0 mi South 9.2 mph - N/A   Clear
1:35 AM 60.8 °F 33.3 °F 36% 30.05 in 10.0 mi South 10.4 mph - N/A   Clear
1:55 AM 60.8 °F 33.4 °F 36% 30.04 in 10.0 mi South 10.4 mph - N/A   Clear
2:15 AM 60.4 °F 33.4 °F 36% 30.04 in 10.0 mi South 10.4 mph - N/A   Clear
2:35 AM 59.4 °F 33.8 °F 38% 30.04 in 10.0 mi South 8.1 mph - N/A   Clear
2:55 AM 59.2 °F 33.4 °F 38% 30.03 in 10.0 mi South 9.2 mph - N/A   Clear
3:15 AM 59.0 °F 33.4 °F 38% 30.02 in 10.0 mi South 9.2 mph - N/A   Clear
3:35 AM 59.2 °F 33.3 °F 38% 30.02 in 10.0 mi South 8.1 mph - N/A   Clear
3:55 AM 59.0 °F 33.1 °F 38% 30.01 in 10.0 mi South 10.4 mph - N/A   Clear
4:15 AM 58.8 °F 32.9 °F 38% 30.01 in 10.0 mi South 10.4 mph - N/A   Clear
4:35 AM 57.9 °F 33.3 °F 39% 30.02 in 10.0 mi South 9.2 mph - N/A   Clear
4:55 AM 56.8 °F 33.4 °F 41% 30.02 in 10.0 mi South 8.1 mph - N/A   Clear
5:15 AM 56.1 °F 33.8 °F 43% 30.02 in 10.0 mi South 6.9 mph - N/A   Clear
5:35 AM 55.6 °F 33.8 °F 44% 30.02 in 10.0 mi South 8.1 mph - N/A   Clear
5:55 AM 55.9 °F 33.8 °F 43% 30.02 in 10.0 mi South 9.2 mph - N/A   Clear
6:15 AM 55.9 °F 34.0 °F 44% 30.02 in 10.0 mi South 9.2 mph - N/A   Clear
6:35 AM 56.8 °F 33.4 °F 41% 30.03 in 10.0 mi SSW 9.2 mph - N/A   Clear
6:55 AM 57.2 °F 33.8 °F 41% 30.04 in 10.0 mi SSW 8.1 mph - N/A   Clear
7:15 AM 57.2 °F 33.8 °F 41% 30.04 in 10.0 mi SSW 10.4 mph - N/A   Clear
7:35 AM 57.4 °F 34.5 °F 42% 30.04 in 10.0 mi SSW 8.1 mph - N/A   Clear
8:15 AM 59.4 °F 35.1 °F 40% 30.05 in 10.0 mi SSW 10.4 mph - N/A   Clear
8:35 AM 60.4 °F 35.8 °F 40% 30.05 in 10.0 mi SSW 9.2 mph - N/A   Clear
8:55 AM 61.7 °F 36.3 °F 39% 30.05 in 10.0 mi SW 11.5 mph 16.1 mph N/A   Clear
9:15 AM 61.3 °F 36.5 °F 40% 30.06 in 10.0 mi SW 10.4 mph 19.6 mph N/A   Clear
9:35 AM 62.2 °F 37.4 °F 40% 30.06 in 10.0 mi SW 13.8 mph 19.6 mph N/A   Clear
9:55 AM 63.5 °F 38.3 °F 39% 30.06 in 10.0 mi SW 9.2 mph 16.1 mph N/A   Clear
10:15 AM 64.8 °F 39.0 °F 39% 30.06 in 10.0 mi SSW 13.8 mph 20.7 mph N/A   Clear
10:35 AM 66.7 °F 40.5 °F 38% 30.06 in 10.0 mi SW 10.4 mph 23.0 mph N/A   Clear
10:55 AM 68.2 °F 41.2 °F 37% 30.06 in 10.0 mi WSW 20.7 mph 27.6 mph N/A   Clear
11:15 AM 68.2 °F 41.0 °F 37% 30.06 in 10.0 mi WSW 9.2 mph 26.5 mph N/A   Clear
11:35 AM 69.3 °F 41.7 °F 37% 30.06 in 10.0 mi SW 13.8 mph 25.3 mph N/A   Clear
11:55 AM 69.6 °F 41.5 °F 36% 30.05 in 10.0 mi WSW 12.7 mph 21.9 mph N/A   Clear
12:15 PM 69.1 °F 41.0 °F 36% 30.06 in 10.0 mi SW 15.0 mph 24.2 mph N/A   Clear
12:35 PM 70.2 °F 41.9 °F 36% 30.05 in 10.0 mi WSW 11.5 mph 17.3 mph N/A   Scattered Clouds
12:55 PM 69.6 °F 41.4 °F 36% 30.05 in 10.0 mi WSW 12.7 mph 21.9 mph N/A   Mostly Cloudy
1:15 PM 71.4 °F 41.9 °F 34% 30.04 in 10.0 mi SW 15.0 mph 21.9 mph N/A   Overcast
1:35 PM 72.0 °F 42.1 °F 34% 30.03 in 10.0 mi WSW 15.0 mph 24.2 mph N/A   Scattered Clouds
1:55 PM 71.8 °F 42.3 °F 34% 30.02 in 10.0 mi SW 16.1 mph 21.9 mph N/A   Scattered Clouds
2:15 PM 71.4 °F 42.3 °F 35% 30.02 in 10.0 mi WSW 9.2 mph 20.7 mph N/A   Scattered Clouds
2:35 PM 72.7 °F 42.4 °F 34% 30.02 in 10.0 mi SW 9.2 mph - N/A   Mostly Cloudy
2:55 PM 72.1 °F 42.1 °F 34% 30.01 in 10.0 mi SW 11.5 mph - N/A   Overcast
3:15 PM 71.6 °F 41.7 °F 34% 30.01 in 10.0 mi SW 11.5 mph 17.3 mph N/A   Overcast
3:35 PM 71.4 °F 41.9 °F 34% 30.00 in 10.0 mi WSW 8.1 mph 18.4 mph N/A   Overcast
3:55 PM 73.4 °F 42.3 °F 33% 30.00 in 10.0 mi West 9.2 mph - N/A   Overcast
4:15 PM 72.5 °F 41.7 °F 33% 30.00 in 10.0 mi WSW 8.1 mph - N/A   Overcast
4:35 PM 72.9 °F 41.4 °F 32% 30.00 in 10.0 mi WSW 9.2 mph - N/A   Overcast
4:55 PM 72.3 °F 41.0 °F 32% 30.00 in 10.0 mi WSW 10.4 mph - N/A   Overcast
5:15 PM 72.5 °F 41.2 °F 32% 30.00 in 10.0 mi WSW 8.1 mph - N/A   Overcast
5:35 PM 73.6 °F 41.7 °F 32% 30.00 in 10.0 mi WSW 12.7 mph 18.4 mph N/A   Overcast
5:55 PM 71.6 °F 41.2 °F 33% 30.01 in 10.0 mi SW 10.4 mph 17.3 mph N/A   Mostly Cloudy
6:15 PM 71.6 °F 41.5 °F 34% 30.01 in 10.0 mi WSW 10.4 mph - N/A   Mostly Cloudy
6:35 PM 71.6 °F 41.2 °F 33% 30.01 in 10.0 mi WSW 6.9 mph - N/A   Overcast
6:55 PM 71.1 °F 41.0 °F 34% 30.01 in 10.0 mi WSW 8.1 mph - N/A   Overcast
7:15 PM 70.7 °F 41.0 °F 34% 30.02 in 10.0 mi WSW 6.9 mph - N/A   Overcast
7:35 PM 70.0 °F 41.2 °F 35% 30.02 in 10.0 mi SW 4.6 mph - N/A   Overcast
7:55 PM 69.4 °F 41.0 °F 36% 30.01 in 10.0 mi WSW 3.5 mph - N/A   Overcast
8:15 PM 68.9 °F 40.5 °F 35% 30.02 in 10.0 mi SW 4.6 mph - N/A   Scattered Clouds
8:35 PM 68.5 °F 40.1 °F 35% 30.02 in 10.0 mi SSW 3.5 mph - N/A   Clear
8:55 PM 67.1 °F 40.3 °F 38% 30.02 in 10.0 mi SSW 3.5 mph - N/A   Clear
9:15 PM 66.2 °F 40.5 °F 39% 30.02 in 10.0 mi South 4.6 mph - N/A   Clear
9:35 PM 65.3 °F 41.0 °F 41% 30.02 in 10.0 mi South 6.9 mph - N/A   Clear
9:55 PM 66.2 °F 40.3 °F 39% 30.03 in 10.0 mi South 6.9 mph - N/A   Clear
10:15 PM 66.2 °F 40.1 °F 38% 30.03 in 10.0 mi SSW 5.8 mph - N/A   Clear
10:35 PM 66.2 °F 39.9 °F 38% 30.03 in 10.0 mi SSW 5.8 mph - N/A   Clear
10:55 PM 65.7 °F 39.7 °F 39% 30.03 in 10.0 mi SW 4.6 mph - N/A   Clear
11:15 PM 65.5 °F 39.6 °F 39% 30.03 in 10.0 mi SW 4.6 mph - N/A   Clear
11:35 PM 64.9 °F 39.7 °F 40% 30.03 in 10.0 mi SW 4.6 mph - N/A   Clear
11:55 PM 64.9 °F 39.6 °F 39% 30.04 in 10.0 mi SW 3.5 mph - N/A   Mostly Cloudy